COSMOS 2251 DEB, 40796

Orbit data source: Space-Track

COSMOS 2251 DEB, 40796 is space debris in LEO originally from a launch on Wed, 16 Jun 1993 UTC launched from the Plesetsk Missile And Space Complex (PKMTR). The debris from Iridium 33, an American commercial communications satellite, has been tracked extensively since its accidental collision with the defunct Russian satellite Cosmos 2251 in 2009. This event, occurring at high speed in low Earth orbit (LEO), generated thousands of pieces of space debris, significantly increasing the risk of further collisions. The Iridium 33 debris cloud has impacted space traffic management and orbital debris mitigation strategies, making it a subject of ongoing study in space situational awareness.

Loading next visibility...
Identifier
40796, 1993-036BVZ
Orbit
LEO
Country
Flag of CISCIS
Related business
Manufacturer
Unknown
Mission
Spacecraft
Bus & Motor
Unknown
Mass
Unknown
Launch date (UTC)
1993-06-16 (33 years ago)
Launch vehicle
Unknown
Launch site
Plesetsk Missile And Space Complex (PKMTR)
Object type
Payload
Rocket body
Debris
Shape & HBR
Unknown shape, 0.1 m
Radar Cross Section
Small (<0.1 m²)

Expand to show TLE details & history
Last TLE update: 1 week ago

TLE from 1 week ago
0 COSMOS 2251 DEB
1 40796U 93036BVZ 26166.19791802  .00003727  00000-0  43954-3 0  9992
2 40796  74.0105 136.5441 0054826 227.2459 152.2513 14.84060658788931
Epoch: 2026-06-15T04:45Z
TLE epoch observation values (Epoch: 2026-06-15T04:45:00.116Z)
Latitude
18.99622°
Longitude
167.43633°
Altitude
652.692 km
Speed
7.515 km/s
True Right ascension
09h 28m 41s
True Declination
18° 53' 21"
Sunlit
Object was in daylight at epoch
Visualization orbit readout
Latitude
Unknown
Longitude
Unknown
Altitude
Unknown
Speed
Unknown
Apparent Right ascension
Unknown
Apparent Declination
Unknown
Sunlit
N/A
Visualization observer readout
Local Sidereal Time
21:36:13
Azimuth
Unknown
Elevation
Unknown
Doppler factor
Unknown
Orbital elements
Apogee altitude
652.445 km
Perigee altitude
575.773 km
Semi-major axis
6,992.246 km
Eccentricity
0.00548
Inclination
74.0105°
RAAN
136.5441°
Arg. of periapsis
227.2459°
True anomaly
152.54205°
Mean anomaly
152.2513°
Eccentric anomaly
152.39685°
Mean motion
3.71209 °/min
Orbital period
96.98 mins
BSTAR
0.00043954
Loading maneuver chart data...
Computing Atmospheric mass density...

Documentation

Showing up to 5 results
|